Walla Walla, WA

5:42 PM PDT on April 27, 2017 (GMT -0700)
Walla Walla Regional

Weather History for KALW - May, 2013

Change the Weather History Date:

Thursday, May 16, 2013

  Actual Average Record
Temperature  
Mean Temperature 64 °F 60 °F  
Max Temperature 73 °F 71 °F 94 °F (2006)
Min Temperature 55 °F 48 °F 36 °F (1974)
Degree Days  
Heating Degree Days 1 7  
Month to date heating degree days 134  
Since 1 July heating degree days 4875  
Cooling Degree Days 0 1  
Month to date cooling degree days 13  
Year to date cooling degree days 15  
Growing Degree Days 14 (Base 50)    
Moisture  
Dew Point 42 °F    
Average Humidity 49    
Maximum Humidity 67    
Minimum Humidity 25    
Precipitation  
Precipitation 0.00 in 0.06 in 0.50 in (2005)
Month to date precipitation 1.08  
Year to date precipitation 9.59  
Snow  
Snow 0.00 in 0.00 in 0.00 in (2002)
Month to date snowfall 0.0  
Year to date snowfall 6.0  
Since 1 July snowfall 11.7  
Snow Depth -    
Sea Level Pressure  
Sea Level Pressure 29.90 in    
Wind  
Wind Speed 9 mph (South)    
Max Wind Speed 15 mph    
Max Gust Speed -    
Visibility 10 miles    
Events      
T = Trace of Precipitation, MM = Missing Value Source: NWS Daily Summary

Daily Weather History Graph

Daily Weather History Graph

Search for Another Location

Airport or City:

Trip Planner

Search our weather history database for the weather conditions in past years. The results will help you decide how hot, cold, wet, or windy it might be!

Date:

Astronomy

May. 16, 2013 Rise Set
Actual Time 5:19 AM PDT 8:20 PM PDT
Civil Twilight 4:43 AM PDT 8:56 PM PDT
Nautical Twilight 3:58 AM PDT 9:41 PM PDT
Astronomical Twilight 3:03 AM PDT 10:37 PM PDT
Moon 11:03 AM PDT (5/16) 12:38 AM PDT (5/16)
Length of Visible Light 16h 12m
Length of Day
15h 01m
Waxing Crescent, 36% of the Moon is Illuminated
May 16
Waxing Crescent
May 17
First Quarter
May 24
Full
May 31
Last Quarter
Jun 8
New

Hourly Weather History & Observations

Time (PDT) Temp. Dew Point Humidity Pressure Visibility Wind Dir Wind Speed Gust Speed Precip Events Conditions
12:53 AM 57.9 °F 42.1 °F 56% 29.98 in 10.0 mi SSW 12.7 mph - N/A   Overcast
1:53 AM 55.9 °F 44.1 °F 64% 29.98 in 10.0 mi South 15.0 mph - N/A   Overcast
2:53 AM 55.0 °F 43.0 °F 64% 29.96 in 10.0 mi South 12.7 mph - 0.00 in   Mostly Cloudy
3:53 AM 55.0 °F 43.0 °F 64% 29.96 in 10.0 mi SSW 12.7 mph - N/A   Mostly Cloudy
4:53 AM 55.0 °F 44.1 °F 67% 29.96 in 10.0 mi SSW 9.2 mph - N/A   Overcast
5:53 AM 55.0 °F 44.1 °F 67% 29.96 in 10.0 mi SSW 10.4 mph - N/A   Overcast
6:53 AM 55.9 °F 44.1 °F 64% 29.97 in 10.0 mi SSW 11.5 mph - N/A   Clear
7:53 AM 57.0 °F 44.1 °F 62% 29.97 in 10.0 mi SSW 13.8 mph - N/A   Overcast
8:53 AM 59.0 °F 44.1 °F 58% 29.97 in 10.0 mi SW 11.5 mph - N/A   Overcast
9:53 AM 61.0 °F 44.1 °F 54% 29.96 in 10.0 mi SW 10.4 mph - N/A   Overcast
10:53 AM 63.0 °F 43.0 °F 48% 29.95 in 10.0 mi South 5.8 mph - N/A   Partly Cloudy
11:53 AM 64.9 °F 43.0 °F 45% 29.94 in 10.0 mi Calm Calm - N/A   Clear
12:53 PM 66.9 °F 42.1 °F 40% 29.91 in 10.0 mi Calm Calm - N/A   Partly Cloudy
1:53 PM 69.1 °F 39.9 °F 35% 29.88 in 10.0 mi Variable 3.5 mph - N/A   Clear
2:53 PM 70.0 °F 37.9 °F 31% 29.87 in 10.0 mi Calm Calm - N/A   Clear
3:53 PM 71.1 °F 37.9 °F 30% 29.85 in 10.0 mi Variable 3.5 mph - N/A   Clear
4:53 PM 73.0 °F 37.0 °F 27% 29.83 in 10.0 mi NE 3.5 mph - N/A   Clear
5:53 PM 72.0 °F 34.0 °F 25% 29.82 in 10.0 mi Calm Calm - N/A   Clear
6:53 PM 71.1 °F 35.1 °F 27% 29.81 in 10.0 mi NE 4.6 mph - N/A   Clear
7:53 PM 69.1 °F 35.1 °F 29% 29.81 in 10.0 mi Calm Calm - N/A   Clear
8:53 PM 63.0 °F 44.1 °F 50% 29.83 in 10.0 mi East 8.1 mph - N/A   Clear
9:53 PM 59.0 °F 44.1 °F 58% 29.84 in 10.0 mi East 6.9 mph - N/A   Clear
10:53 PM 59.0 °F 43.0 °F 55% 29.84 in 10.0 mi ESE 5.8 mph - N/A   Clear
11:53 PM 57.0 °F 43.0 °F 59% 29.86 in 10.0 mi SSW 3.5 mph - N/A   Clear